Weather History for Al Udeid, Qatar

Change the Weather History Date:

Wednesday, August 28, 2013

  Actual Average Record
Temperature  
Mean Temperature 96 °F -  
Max Temperature 108 °F - - ()
Min Temperature 83 °F - - ()
Cooling Degree Days 30    
Growing Degree Days 46 (Base 50)    
Moisture  
Dew Point 62 °F    
Average Humidity 38    
Maximum Humidity 67    
Minimum Humidity 12    
Precipitation  
Precipitation 0.00 in - - ()
Sea Level Pressure  
Sea Level Pressure 29.56 in    
Wind  
Wind Speed 10 mph ()    
Max Wind Speed 25 mph    
Max Gust Speed 33 mph    
Visibility 6.1 miles    
Events      
T = Trace of Precipitation, MM = Missing Value Source: Averaged Metar Reports

Daily Weather History Graph

Daily Weather History Graph

Search for Another Location

Airport:

Trip Planner

Search our weather history database for the weather conditions in past years. The results will help you decide how hot, cold, wet, or windy it might be!

Date:

Astronomy

Aug. 28, 2013 Rise Set
Actual Time 5:13 AM AST 5:57 PM AST
Civil Twilight 4:50 AM AST 6:21 PM AST
Nautical Twilight 4:22 AM AST 6:48 PM AST
Astronomical Twilight 3:54 AM AST 7:16 PM AST
Moon 11:05 PM AST (8/28) 11:58 AM AST (8/28)
Length of Visible Light 13h 30m
Length of Day
12h 43m
Waning Gibbous, 50% of the Moon is Illuminated
Aug 28
Waning Gibbous
Aug 28
Last Quarter
Sep 5
New
Sep 12
First Quarter
Sep 19
Full

Hourly Weather History & Observations

Time (AST) Temp. Heat Index Dew Point Humidity Pressure Visibility Wind Dir Wind Speed Gust Speed Precip Events Conditions
12:55 AM 85.6 °F 88.5 °F 67.1 °F 54% 29.52 in 6.2 mi West 10.4 mph - N/A   Clear
1:55 AM 85.3 °F 88.8 °F 68.5 °F 57% 29.51 in 6.2 mi WNW 12.7 mph - N/A   Clear
2:55 AM 84.6 °F 90.7 °F 72.3 °F 67% 29.52 in 6.2 mi WNW 12.7 mph - N/A   Clear
3:55 AM 84.7 °F 88.8 °F 69.4 °F 60% 29.54 in 6.2 mi WNW 8.1 mph - N/A   Clear
4:55 AM 83.8 °F 86.7 °F 67.8 °F 58% 29.56 in 6.2 mi Calm Calm - N/A   Clear
5:32 AM 84.2 °F 87.3 °F 68.0 °F 58% 29.57 in - Calm Calm - N/A   Haze
5:40 AM 84.2 °F 87.3 °F 68.0 °F 58% 29.57 in 3.7 mi Calm Calm - N/A   Haze
5:55 AM 84.9 °F 87.9 °F 67.8 °F 56% 29.57 in 5.0 mi NW 3.5 mph - N/A   Haze
6:55 AM 87.1 °F 90.6 °F 68.0 °F 53% 29.59 in 6.2 mi WNW 3.5 mph - N/A   Clear
7:55 AM 95.4 °F 102.7 °F 70.7 °F 45% 29.60 in 6.2 mi NNW 10.4 mph - N/A   Clear
8:55 AM 100.6 °F 103.3 °F 63.9 °F 30% 29.60 in 6.2 mi NNW 16.1 mph - N/A   Clear
9:55 AM 104.0 °F 105.3 °F 60.4 °F 24% 29.60 in 6.2 mi North 15.0 mph - N/A   Clear
10:55 AM 107.6 °F - 48.4 °F 14% 29.58 in 6.2 mi NNW 17.3 mph - N/A   Clear
11:55 AM 108.9 °F - 46.4 °F 12% 29.56 in 6.2 mi NNW 21.9 mph 29.9 mph N/A   Clear
12:55 PM 108.7 °F 107.6 °F 54.7 °F 17% 29.54 in 6.2 mi NNW 25.3 mph 33.4 mph N/A   Clear
1:55 PM 108.9 °F - 50.9 °F 15% 29.54 in 6.2 mi NNW 20.7 mph - N/A   Clear
2:55 PM 108.0 °F - 47.1 °F 13% 29.54 in 6.2 mi NNW 20.7 mph 29.9 mph N/A   Clear
3:55 PM 106.5 °F - 47.1 °F 14% 29.54 in 6.2 mi NNW 24.2 mph 29.9 mph N/A   Clear
4:55 PM 104.0 °F - 52.3 °F 18% 29.55 in 6.2 mi NNW 20.7 mph - N/A   Clear
5:55 PM 100.4 °F 98.8 °F 54.5 °F 22% 29.55 in 6.2 mi North 18.4 mph - N/A   Clear
6:55 PM 96.6 °F 96.0 °F 59.0 °F 28% 29.57 in 6.2 mi NNW 11.5 mph - N/A   Clear
7:55 PM 93.4 °F 94.3 °F 62.6 °F 36% 29.58 in 6.2 mi NNW 10.4 mph - N/A   Clear
8:55 PM 93.0 °F 95.9 °F 65.8 °F 41% 29.59 in 6.2 mi North 9.2 mph - N/A   Clear
9:55 PM 88.9 °F 91.4 °F 66.0 °F 47% 29.59 in 6.2 mi NNW 6.9 mph - N/A   Clear
10:55 PM 89.1 °F 92.5 °F 67.8 °F 49% 29.59 in 6.2 mi North 4.6 mph - N/A   Clear
11:55 PM 84.2 °F 86.1 °F 65.5 °F 53% 29.58 in 6.2 mi West 4.6 mph - N/A   Clear